PLATFORM,DATE (YYYY/MM/DD HH:MI:SS),LATITUDE (degree_north),LONGITUDE (degree_east),DEPH LEVEL1(meter),TEMP LEVEL1(degree_Celsius),DEPH LEVEL2(meter),NSCT LEVEL2(meter/second),EWCT LEVEL2(meter/second),QC,SVP_RCBN_Number,SVP_GNRL_ImmPercent,SVP_GNRL_BattVolt
61785,2010/12/10 08:02:31,42.6622,9.4399,0.5,19.24,50,,,014471799,1,0,11.6
61785,2010/12/13 10:04:15,42.6626,9.4398,0.5,20.04,50,0.000167,-3.1e-05,014471700,1,0,11.6
61785,2010/12/13 11:03:05,42.6629,9.4396,0.5,19.88,50,0.00945,-0.004633,014471700,1,0,11.6
61785,2010/12/13 12:01:09,42.6629,9.4394,0.5,21.16,50,0,-0.004694,014471700,3,0,11.7
61785,2010/12/13 13:00:39,42.6625,9.4399,0.5,22.44,50,-0.012459,0.011452,014471700,1,0,11.6
61785,2010/12/13 17:00:00,42.7420,9.5200,0.5,20.84,50,0.615556,0.455779,011171700,1,0,11.6
61785,2010/12/13 18:00:00,42.7420,9.5200,0.5,21.48,50,0,0,011171700,1,0,11.6
61785,2010/12/13 20:00:00,42.7420,9.5200,0.5,21.72,50,0,0,011171700,1,0,11.6
61785,2010/12/13 21:00:00,42.7420,9.5200,0.5,21.64,50,0,0,011171700,1,0,11.6
61785,2010/12/13 22:00:00,42.7420,9.5200,0.5,21.64,50,0,0,011171700,1,0,11.6
61785,2010/12/13 23:00:00,42.7420,9.5200,0.5,21.72,50,0,0,011171700,1,0,11.6
61785,2010/12/14 01:00:00,42.7420,9.5200,0.5,21.64,50,0,0,011171700,1,0,11.5
61785,2010/12/14 04:00:00,42.7420,9.5200,0.5,21.56,50,0,0,011171700,1,0,11.5
61785,2010/12/14 05:00:00,42.7420,9.5200,0.5,21.48,50,0,0,011171700,1,0,11.5
61785,2010/12/14 07:00:00,42.7420,9.5200,0.5,21.4,50,0,0,011171700,1,0,11.5
61785,2010/12/14 08:00:00,42.7420,9.5200,0.5,17.16,50,0,0,011174700,1,0,11.5
61785,2010/12/14 09:04:15,42.6627,9.4391,0.5,12.6,50,-2.28736,-1.71486,014474700,1,0,11.6
61785,2010/12/14 10:02:57,42.6618,9.4416,0.5,21.08,50,-0.028414,0.058041,014474700,1,0,11.5
61785,2010/12/14 11:02:59,42.6632,9.4396,0.5,24.44,50,0.043218,-0.045402,014474700,3,0,11.5
61785,2010/12/14 12:00:39,42.6625,9.4400,0.5,13.24,50,-0.022496,0.009453,014474700,1,0,11.5
61785,2010/12/14 14:00:52,42.6622,9.4404,0.5,9.88,50,-0.004625,0.004534,014474700,1,0,11.5
61785,2010/12/16 08:04:15,42.6741,9.4437,0.5,13.08,50,0.00874,0.001782,014474700,9,0,11.5
61785,2010/12/16 09:00:10,42.6739,9.4438,0.5,11.96,50,-0.006629,0.002437,014474700,3,0,11.5
61785,2010/12/16 10:00:15,42.7306,9.5227,0.5,14.6,50,1.74889,1.78845,014471700,4,0,11.5
61785,2010/12/16 11:00:15,42.7279,9.5191,0.5,14.6,50,-0.083396,-0.08168,011171700,5,0,11.5
61785,2010/12/16 12:00:39,42.7250,9.5173,0.5,14.6,50,-0.08898,-0.040572,011171700,1,0,11.5
61785,2010/12/16 13:00:11,42.7225,9.5160,0.5,14.6,50,-0.077824,-0.029729,011171700,1,0,11.5
61785,2010/12/16 14:00:16,42.7201,9.5131,0.5,14.52,50,-0.074027,-0.065715,011171700,9,0,11.5
61785,2010/12/16 15:00:39,42.7195,9.5112,0.5,14.52,50,-0.018415,-0.042842,011171700,3,0,11.5
61785,2010/12/16 16:00:15,42.7194,9.5095,0.5,14.52,50,-0.003109,-0.038836,011171700,1,0,11.5
61785,2010/12/16 17:00:15,42.7199,9.5086,0.5,14.44,50,0.015444,-0.020423,011171700,1,0,11.5
61785,2010/12/16 18:00:39,42.7201,9.5081,0.5,14.44,50,0.006137,-0.011271,011171700,5,0,11.5
61785,2010/12/16 19:00:15,42.7220,9.5084,0.5,14.44,50,0.05908,0.006853,011171700,5,0,11.5
61785,2010/12/16 20:00:15,42.7240,9.5084,0.5,14.36,50,0.061775,0,011171700,4,0,11.5
61785,2010/12/16 21:00:15,42.7268,9.5083,0.5,14.36,50,0.086485,-0.002269,011171700,4,0,11.5
61785,2010/12/16 22:00:34,42.7303,9.5080,0.5,14.36,50,0.107539,-0.006771,011171700,3,0,11.5
61785,2010/12/16 23:00:00,42.7356,9.5100,0.5,14.36,50,0.164641,0.045808,011171700,1,0,11.5
61785,2010/12/17 00:00:10,42.7399,9.5080,0.5,14.36,50,0.133064,-0.045246,011171700,1,0,11.5
61785,2010/12/17 01:00:21,42.7449,9.5071,0.5,14.36,50,0.153967,-0.020354,011171700,4,0,11.5
61785,2010/12/17 02:00:00,42.7515,9.5073,0.5,14.28,50,0.204743,0.004107,011171700,4,0,11.5
61785,2010/12/17 02:00:35,-62.0903,128.4743,0.5,19.4,50,,,014474799,1,80,0.3
61785,2010/12/17 03:00:39,42.7556,9.5072,0.5,14.36,50,,,014471799,4,0,11.5
61785,2010/12/17 04:00:11,42.7599,9.5088,0.5,14.36,50,0.133857,0.03657,011171700,10,0,11.5
61785,2010/12/17 05:00:39,42.7638,9.5100,0.5,14.36,50,0.119531,0.027002,011171700,8,22,11.5
61785,2010/12/17 06:00:15,42.7673,9.5119,0.5,14.28,50,0.108832,0.043373,011171700,4,31,11.5
61785,2010/12/17 07:00:39,42.7706,9.5135,0.5,14.28,50,0.101254,0.036039,011171700,6,0,11.5
61785,2010/12/17 08:00:10,42.7744,9.5148,0.5,14.28,50,0.118326,0.029714,011171700,4,30,11.5
61785,2010/12/17 09:00:15,42.7790,9.5170,0.5,14.2,50,0.141885,0.049808,011171700,1,7,11.5
61785,2010/12/17 10:00:39,42.7849,9.5224,0.5,14.28,50,0.181029,0.121606,011171700,1,68,11.5
61785,2010/12/17 11:00:15,42.7910,9.5291,0.5,14.28,50,0.189678,0.152891,011171700,1,100,11.5
61785,2010/12/17 12:00:15,42.7980,9.5372,0.5,14.36,50,0.216212,0.183587,011171700,6,100,11.5
61785,2010/12/17 13:00:15,42.8069,9.5481,0.5,14.44,50,0.274899,0.247018,011171700,8,100,11.5
61785,2010/12/17 14:00:39,42.8172,9.5560,0.5,14.44,50,0.316034,0.177818,011171700,6,100,11.5
61785,2010/12/17 15:00:15,42.8262,9.5650,0.5,14.36,50,0.279853,0.205264,011171700,4,100,11.5
61785,2010/12/17 16:00:15,42.8350,9.5732,0.5,14.36,50,0.27181,0.185745,011171700,5,100,11.5
61785,2010/12/17 17:00:15,42.8457,9.5799,0.5,14.36,50,0.330496,0.151743,011171700,6,100,11.5
61785,2010/12/17 18:00:39,42.8574,9.5843,0.5,14.36,50,0.35899,0.098975,011171700,6,4,11.5
61785,2010/12/17 19:00:15,42.8712,9.5888,0.5,14.36,50,0.429108,0.102561,011171700,3,100,11.5
61785,2010/12/17 20:00:15,42.8860,9.5973,0.5,14.36,50,0.457135,0.192391,011171700,4,73,11.5
61785,2010/12/17 21:00:39,42.9023,9.6033,0.5,14.36,50,0.500132,0.134872,011171700,1,25,11.5
61785,2010/12/17 22:00:10,42.9201,9.6095,0.5,14.36,50,0.554262,0.141397,011171700,3,92,11.5
61785,2010/12/17 23:00:15,42.9388,9.6165,0.5,14.36,50,0.576795,0.15809,011171700,1,58,11.5
61785,2010/12/18 00:00:39,42.9584,9.6226,0.5,14.36,50,0.601385,0.136999,011171700,3,96,11.5
61785,2010/12/18 01:00:15,42.9775,9.6273,0.5,14.36,50,0.59391,0.10694,011171700,1,100,11.5
61785,2010/12/18 02:00:15,42.9967,9.6301,0.5,14.36,50,0.59304,0.063264,011171700,1,100,11.5
61785,2010/12/18 03:00:15,43.0160,9.6305,0.5,14.36,50,0.596128,0.009035,011171700,7,100,11.5
61785,2010/12/18 04:00:39,43.0349,9.6299,0.5,14.28,50,0.579907,-0.013458,011171700,8,100,11.5
61785,2010/12/18 05:00:11,43.0539,9.6300,0.5,14.28,50,0.591462,0.002275,011171700,7,100,11.5
61785,2010/12/18 06:00:18,43.0726,9.6335,0.5,14.28,50,0.576475,0.078829,011171700,7,100,11.5
61785,2010/12/18 07:00:39,43.0943,9.6395,0.5,14.28,50,0.666371,0.134569,011171700,5,100,11.5
61785,2010/12/18 08:00:15,43.1163,9.6480,0.5,14.28,50,0.684085,0.192969,011171700,3,52,11.5
61785,2010/12/18 09:00:15,43.1380,9.6596,0.5,14.2,50,0.670258,0.261497,011171700,1,71,11.5
61785,2010/12/18 10:00:39,43.1595,9.6709,0.5,14.28,50,0.659683,0.252958,011171700,3,47,11.5
61785,2010/12/18 11:00:15,43.1763,9.6822,0.5,14.28,50,0.522392,0.256273,011171700,1,0,11.5
61785,2010/12/18 12:00:15,43.1907,9.6918,0.5,14.28,50,0.44478,0.216212,011171700,1,0,11.5
61785,2010/12/18 13:00:34,43.2009,9.6984,0.5,14.28,50,0.313398,0.147836,011171700,5,0,11.5
61785,2010/12/18 14:00:15,43.2085,9.7024,0.5,14.2,50,0.23599,0.090535,011171700,6,0,11.5
61785,2010/12/18 15:00:22,43.2159,9.7029,0.5,14.28,50,0.228124,0.011234,011171700,8,0,11.5
61785,2010/12/18 16:00:34,43.2223,9.7003,0.5,14.28,50,0.197023,-0.058329,011171700,5,12,11.5
61785,2010/12/18 17:00:15,43.2274,9.6954,0.5,14.28,50,0.158362,-0.110869,011171700,6,50,11.5
61785,2010/12/18 18:00:15,43.2317,9.6880,0.5,14.2,50,0.132816,-0.166538,011171700,3,0,11.5
61785,2010/12/18 19:00:39,43.2356,9.6803,0.5,14.12,50,0.119663,-0.17213,011171700,4,14,11.5
61785,2010/12/18 20:00:00,43.2372,9.6762,0.5,14.12,50,0.051523,-0.093498,011171700,4,0,11.6
61785,2010/12/18 21:00:15,43.2464,9.6617,0.5,14.12,50,0.281448,-0.32468,011171700,4,0,11.6
61785,2010/12/18 22:00:39,43.2522,9.6547,0.5,14.12,50,0.177961,-0.156442,011171700,1,14,11.5
61785,2010/12/18 23:00:10,43.2557,9.6498,0.5,14.12,50,0.108984,-0.111126,011171700,3,1,11.5
61785,2010/12/19 00:00:15,43.2576,9.6472,0.5,14.12,50,0.058605,-0.058406,011171700,1,84,11.5
61785,2010/12/19 01:00:39,43.2587,9.6442,0.5,14.04,50,0.033751,-0.067037,011171700,1,42,11.5
61785,2010/12/19 02:00:15,43.2590,9.6415,0.5,14.04,50,0.009328,-0.061142,011171700,8,0,11.5
61785,2010/12/19 03:00:16,43.2597,9.6377,0.5,14.04,50,0.021615,-0.085454,011171700,1,34,11.5
61785,2010/12/19 04:00:39,43.2609,9.6339,0.5,13.96,50,0.03683,-0.084934,011171700,4,42,11.5
61785,2010/12/19 05:00:16,43.2614,9.6324,0.5,13.96,50,0.015543,-0.033957,011171700,5,0,11.5
61785,2010/12/19 06:00:11,43.2596,9.6326,0.5,13.96,50,-0.055675,0.004505,011171700,6,42,11.5
61785,2010/12/19 07:00:39,43.2567,9.6295,0.5,13.96,50,-0.088882,-0.069195,011171700,7,100,11.5
61785,2010/12/19 08:00:15,43.2553,9.6235,0.5,13.96,50,-0.043533,-0.135878,011171700,6,100,11.5
61785,2010/12/19 09:00:15,43.2554,9.6158,0.5,13.96,50,0.003089,-0.173216,011171700,4,100,11.5
61785,2010/12/19 10:00:39,43.2574,9.6075,0.5,13.96,50,0.061366,-0.185473,011171700,4,100,11.5
61785,2010/12/19 11:00:15,43.2612,9.6010,0.5,13.96,50,0.11816,-0.147193,011171700,1,100,11.5
61785,2010/12/19 12:00:15,43.2653,9.5960,0.5,13.96,50,0.126639,-0.112463,011171700,1,100,11.5
61785,2010/12/19 13:00:22,43.2695,9.5945,0.5,13.96,50,0.129476,-0.033671,011171700,6,100,11.3
61785,2010/12/19 14:00:39,43.2738,9.5960,0.5,13.96,50,0.132192,0.033576,011171700,6,9,11.5
61785,2010/12/19 15:00:11,43.2756,9.6009,0.5,13.96,50,0.056033,0.111057,011171700,7,15,11.5
61785,2010/12/19 16:00:15,43.2764,9.6062,0.5,13.96,50,0.024683,0.119054,011171700,5,42,11.5
61785,2010/12/19 17:00:17,43.2755,9.6092,0.5,13.96,50,-0.027783,0.067426,011171700,4,74,11.5
61785,2010/12/19 18:00:39,43.2731,9.6114,0.5,13.96,50,-0.07368,0.049174,011171700,4,50,11.5
61785,2010/12/19 19:00:15,43.2703,9.6125,0.5,14.04,50,-0.087065,0.024905,011171700,5,25,11.5
61785,2010/12/19 20:00:15,43.2671,9.6116,0.5,13.96,50,-0.09884,-0.020242,011171700,7,47,11.5
61785,2010/12/19 21:00:39,43.2640,9.6096,0.5,14.04,50,-0.095117,-0.044686,011171700,4,20,11.5
61785,2010/12/19 22:00:15,43.2617,9.6045,0.5,14.04,50,-0.071518,-0.115483,011171700,3,11,11.5
61785,2010/12/19 23:00:11,43.2602,9.5981,0.5,14.04,50,-0.046383,-0.144119,011171700,3,6,11.5
61785,2010/12/20 00:00:39,43.2595,9.5914,0.5,14.04,50,-0.021454,-0.149546,011171700,3,30,11.4
61785,2010/12/20 01:00:15,43.2595,9.5876,0.5,13.96,50,0,-0.086051,011171700,1,36,11.5
61785,2010/12/20 02:00:15,43.2598,9.5849,0.5,13.96,50,0.009266,-0.060734,011171700,1,30,11.4
61785,2010/12/20 03:00:38,43.2607,9.5843,0.5,13.96,50,0.027622,-0.013411,011171700,1,0,11.4
61785,2010/12/20 04:00:09,43.2609,9.5852,0.5,13.96,50,0.006228,0.020409,011171700,6,0,11.4
61785,2010/12/20 05:00:15,43.2603,9.5879,0.5,13.96,50,-0.018502,0.060632,011171700,6,14,11.4
61785,2010/12/20 06:00:39,43.2580,9.5903,0.5,13.96,50,-0.070571,0.053628,011171700,8,0,11.4
61785,2010/12/20 07:00:15,43.2557,9.5912,0.5,13.96,50,-0.071518,0.020381,011171700,7,0,11.4
61785,2010/12/20 08:00:10,43.2527,9.5912,0.5,13.96,50,-0.092791,0,011171700,8,0,11.4
61785,2010/12/20 09:00:39,43.2493,9.5908,0.5,13.96,50,-0.104178,-0.008927,011171700,5,0,11.4
61785,2010/12/20 10:00:15,43.2451,9.5916,0.5,13.96,50,-0.130598,0.01812,011171700,3,0,11.4
61785,2010/12/20 11:00:34,43.2406,9.5933,0.5,13.96,50,-0.138264,0.038049,011171700,1,0,11.4
61785,2010/12/20 12:00:10,43.2356,9.5960,0.5,14.04,50,-0.155474,0.061163,011171700,1,0,11.4
61785,2010/12/20 13:00:16,43.2302,9.6001,0.5,14.04,50,-0.166515,0.092112,011171700,1,0,11.4
61785,2010/12/20 14:00:39,43.2239,9.6046,0.5,13.96,50,-0.193356,0.100634,011171700,8,0,11.4
61785,2010/12/20 15:00:15,43.2185,9.6086,0.5,13.96,50,-0.167912,0.090637,011171700,5,0,11.4
61785,2010/12/20 16:00:15,43.2129,9.6109,0.5,13.96,50,-0.17297,0.051773,011171700,9,0,11.4
61785,2010/12/20 17:00:11,43.2088,9.6114,0.5,13.96,50,-0.12678,0.011269,011171700,8,0,11.4
61785,2010/12/20 18:00:39,43.2052,9.6127,0.5,13.96,50,-0.110337,0.029042,011171700,6,0,11.4
61785,2010/12/20 19:00:11,43.2031,9.6164,0.5,13.96,50,-0.065372,0.083957,011171700,8,0,11.4
61785,2010/12/20 20:00:15,43.2027,9.6216,0.5,13.96,50,-0.012341,0.116948,011171700,5,0,11.4
61785,2010/12/20 21:00:38,43.2047,9.6287,0.5,13.96,50,0.061383,0.158839,011171700,4,0,11.6
61785,2010/12/20 22:00:15,43.2079,9.6372,0.5,13.96,50,0.099475,0.192597,011171700,1,0,11.6
61785,2010/12/20 23:00:13,43.2112,9.6456,0.5,13.96,50,0.101985,0.18921,011171700,4,0,11.4
61785,2010/12/21 00:00:39,43.2159,9.6535,0.5,13.96,50,0.14413,0.176562,011171700,4,0,11.4
61785,2010/12/21 01:00:15,43.2231,9.6606,0.5,13.96,50,0.223882,0.160885,011171700,5,0,11.4
61785,2010/12/21 02:00:16,43.2323,9.6653,0.5,13.96,50,0.284086,0.105748,011171700,1,0,11.4
61785,2010/12/21 03:00:38,43.2401,9.6672,0.5,13.96,50,0.239459,0.042495,011171700,7,0,11.4
61785,2010/12/21 04:00:10,43.2495,9.6686,0.5,13.96,50,0.292618,0.031746,011171700,6,0,11.4
61785,2010/12/21 05:00:15,43.2593,9.6674,0.5,13.96,50,0.302277,-0.026958,011171700,9,0,11.4
61785,2010/12/21 06:00:39,43.2678,9.6648,0.5,13.96,50,0.260805,-0.058093,011171700,9,0,11.4
61785,2010/12/21 07:00:15,43.2747,9.6637,0.5,13.96,50,0.214554,-0.024905,011171700,7,0,11.4
61785,2010/12/21 08:00:15,43.2814,9.6635,0.5,13.96,50,0.206946,-0.004497,011171700,4,0,11.4
61785,2010/12/21 09:00:38,43.2884,9.6634,0.5,13.96,50,0.21484,-0.002234,011171700,4,0,11.4
61785,2010/12/21 10:00:16,43.2957,9.6634,0.5,13.96,50,0.226865,0,011171700,5,0,11.4
61785,2010/12/21 11:00:14,43.3059,9.6614,0.5,13.96,50,0.315227,-0.044983,011171700,3,19,11.4
61785,2010/12/21 12:00:39,43.3161,9.6527,0.5,13.96,50,0.31288,-0.194184,011171700,1,38,11.4
61785,2010/12/21 13:00:16,43.3237,9.6438,0.5,13.96,50,0.236254,-0.201284,011171700,9,28,11.4
61785,2010/12/21 14:00:39,43.3305,9.6355,0.5,13.96,50,0.208701,-0.185309,011171700,9,68,11.4
61785,2010/12/21 15:00:15,43.3377,9.6294,0.5,13.96,50,0.223882,-0.137965,011171700,7,100,11.4
61785,2010/12/21 16:00:15,43.3445,9.6248,0.5,13.96,50,0.210035,-0.103334,011171700,4,96,11.4
61785,2010/12/21 17:00:11,43.3503,9.6210,0.5,13.96,50,0.179347,-0.085449,011171700,4,100,11.4
61785,2010/12/21 18:00:34,43.3548,9.6188,0.5,13.96,50,0.138111,-0.049098,011171700,5,100,11.4
61785,2010/12/21 19:00:15,43.3574,9.6171,0.5,13.96,50,0.080734,-0.038382,011171700,7,98,11.4
61785,2010/12/21 20:00:10,43.3601,9.6136,0.5,13.96,50,0.083512,-0.07871,011171700,4,100,11.4
61785,2010/12/21 21:00:39,43.3637,9.6105,0.5,13.96,50,0.110306,-0.069058,011171700,1,15,11.4
61785,2010/12/21 22:00:21,43.3668,9.6083,0.5,13.96,50,0.096232,-0.049649,011171700,1,4,11.4
61785,2010/12/21 23:00:39,43.5129,9.6092,0.5,13.96,50,4.49021,0.020084,014471700,4,53,11.4
61785,2010/12/22 00:00:15,43.3726,9.6012,0.5,13.96,50,-4.3626,-0.180614,014471700,4,61,11.4
61785,2010/12/22 01:00:15,43.3785,9.5950,0.5,13.96,50,0.182236,-0.139197,011171700,1,100,11.4
61785,2010/12/22 02:00:39,43.3851,9.5912,0.5,13.96,50,0.202507,-0.084741,011171700,7,85,11.4
61785,2010/12/22 03:00:11,43.3906,9.5889,0.5,13.96,50,0.171213,-0.052032,011171700,8,87,11.4
61785,2010/12/22 04:00:39,43.3958,9.5876,0.5,13.96,50,0.159375,-0.028953,011171700,7,98,11.4
61785,2010/12/22 05:00:15,43.3995,9.5867,0.5,13.96,50,0.115051,-0.020334,011171700,10,100,11.4
61785,2010/12/22 06:00:39,43.4030,9.5854,0.5,13.88,50,0.10739,-0.028981,011171700,5,100,11.4
61785,2010/12/22 07:00:15,43.4061,9.5844,0.5,13.96,50,0.096394,-0.022591,011171700,5,92,11.4
61785,2010/12/22 08:00:16,43.4090,9.5824,0.5,13.96,50,0.089549,-0.044866,011171700,4,100,11.4
61785,2010/12/22 09:00:39,43.4116,9.5810,0.5,13.96,50,0.079798,-0.031214,011171700,7,98,11.6
61785,2010/12/22 10:00:15,43.4139,9.5793,0.5,13.96,50,0.071518,-0.038399,011171700,4,0,11.6
61785,2010/12/22 11:00:10,43.4149,9.5783,0.5,13.96,50,0.03093,-0.022468,011171700,1,26,11.6
61785,2010/12/22 12:00:39,43.4155,9.5770,0.5,13.96,50,0.018384,-0.028934,011171700,1,12,11.6
61785,2010/12/22 13:00:15,43.4160,9.5756,0.5,13.96,50,0.015547,-0.031622,011171700,4,0,11.6
61785,2010/12/22 14:00:39,43.4171,9.5719,0.5,13.96,50,0.033751,-0.082463,011171700,4,30,11.6
61785,2010/12/22 15:00:15,43.4197,9.5678,0.5,13.96,50,0.080846,-0.092602,011171700,7,100,11.6
61785,2010/12/22 16:00:15,43.4239,9.5632,0.5,13.96,50,0.129727,-0.103196,011171700,3,100,11.6
61785,2010/12/22 17:00:15,43.4293,9.5587,0.5,13.96,50,0.166792,-0.100945,011171700,5,100,11.6
61785,2010/12/22 18:00:39,43.4350,9.5541,0.5,13.96,50,0.174893,-0.102495,011171700,7,100,11.6
61785,2010/12/22 19:00:11,43.4412,9.5491,0.5,13.96,50,0.193004,-0.113019,011171700,7,100,11.6
61785,2010/12/22 20:00:16,43.4466,9.5446,0.5,13.96,50,0.166561,-0.100776,011171700,3,100,11.6
61785,2010/12/22 21:00:39,43.4518,9.5400,0.5,13.96,50,0.159595,-0.102495,011171700,3,100,11.6
61785,2010/12/22 22:00:15,43.4582,9.5354,0.5,13.96,50,0.199007,-0.103832,011171700,4,100,11.6
61785,2010/12/22 23:00:16,43.4641,9.5334,0.5,13.96,50,0.182186,-0.044826,011171700,1,100,11.6
61785,2010/12/23 00:00:35,43.4700,9.5308,0.5,13.96,50,0.181279,-0.057979,011171700,1,100,11.6
61785,2010/12/23 01:00:18,43.4754,9.5282,0.5,13.96,50,0.167584,-0.058556,011171700,3,88,11.6
61785,2010/12/23 02:00:39,43.4800,9.5281,0.5,13.96,50,0.141258,-0.002228,011171700,3,39,11.6
61785,2010/12/23 03:00:12,43.4827,9.5321,0.5,14.04,50,0.084026,0.090325,011171700,1,20,11.6
61785,2010/12/23 04:00:39,43.4893,9.5276,0.5,13.96,50,0.20234,-0.100095,011171700,5,31,11.4
61785,2010/12/23 05:00:10,43.4958,9.5206,0.5,14.04,50,0.202399,-0.158128,011171700,7,44,11.4
61785,2010/12/23 06:00:39,43.5001,9.5139,0.5,14.04,50,0.131755,-0.148919,011171700,9,1,11.4
61785,2010/12/23 07:00:15,43.5048,9.5100,0.5,13.96,50,0.146145,-0.087962,011171700,7,0,11.4
61785,2010/12/23 08:00:15,43.5079,9.5066,0.5,13.96,50,0.095751,-0.076169,011171700,7,0,11.4
61785,2010/12/23 09:00:16,43.5079,9.5040,0.5,13.96,50,0,-0.058229,011171700,3,0,11.4
61785,2010/12/23 10:00:39,43.5046,9.5013,0.5,14.04,50,-0.101282,-0.060103,011171700,3,0,11.4
61785,2010/12/23 11:00:15,43.5010,9.4967,0.5,14.04,50,-0.111941,-0.10375,011171700,3,0,11.4
61785,2010/12/23 12:00:16,43.4968,9.4909,0.5,14.04,50,-0.129691,-0.129915,011171700,1,0,11.4
61785,2010/12/23 13:00:24,43.4930,9.4848,0.5,14.04,50,-0.117112,-0.136379,011171700,1,0,11.6
61785,2010/12/23 14:00:39,43.4901,9.4771,0.5,14.04,50,-0.089202,-0.171827,011171700,8,0,11.4
61785,2010/12/23 15:00:15,43.4883,9.4688,0.5,14.04,50,-0.055971,-0.187243,011171700,4,0,11.4
61785,2010/12/23 16:00:15,43.4895,9.4624,0.5,14.04,50,0.037065,-0.143418,011171700,4,0,11.4
61785,2010/12/23 17:00:16,43.4935,9.4553,0.5,14.04,50,0.123516,-0.159054,011171700,3,1,11.6
61785,2010/12/23 18:00:35,43.4970,9.4483,0.5,14.12,50,0.107539,-0.156024,011171700,5,36,11.4
61785,2010/12/23 19:00:15,43.5013,9.4391,0.5,14.12,50,0.133558,-0.20728,011171700,7,15,11.4
61785,2010/12/23 19:00:47,43.5013,8.6199,0.5,14.12,50,,,014471799,1,15,11.4
61785,2010/12/23 20:00:15,43.5076,9.4353,0.5,14.12,50,0.196336,18.4315,014471700,4,1,11.4
61785,2010/12/23 21:00:39,43.5103,9.4404,0.5,14.12,50,0.082844,0.113492,011171700,3,96,11.4
61785,2010/12/23 22:00:16,43.5053,9.4557,0.5,14.04,50,-0.15543,0.344956,011171700,5,96,11.6
61785,2010/12/23 23:00:39,43.4990,9.4700,0.5,13.96,50,-0.193356,0.318346,011171700,1,61,11.4
61785,2010/12/24 00:00:15,43.4927,9.4842,0.5,13.96,50,-0.195897,0.320308,011171700,4,57,11.2
61785,2010/12/24 01:00:15,43.4870,9.4931,0.5,13.96,50,-0.176059,0.199438,011171700,1,0,11.4
61785,2010/12/24 02:00:42,43.4812,9.4965,0.5,13.96,50,-0.177814,0.07563,011171700,1,0,11.6
61785,2010/12/24 03:00:15,43.4760,9.4956,0.5,13.96,50,-0.161829,-0.020324,011171700,1,0,11.6
61785,2010/12/24 04:00:15,43.4729,9.4917,0.5,13.88,50,-0.095751,-0.087416,011171700,5,0,11.6
61785,2010/12/24 05:00:15,43.4721,9.4850,0.5,13.96,50,-0.02471,-0.150182,011171700,8,0,11.6
61785,2010/12/24 06:00:39,43.4742,9.4778,0.5,13.96,50,0.064434,-0.160319,011171700,10,0,11.6
61785,2010/12/24 07:00:15,43.4787,9.4725,0.5,13.96,50,0.139927,-0.11959,011171700,9,0,11.6
61785,2010/12/24 08:00:39,43.4855,9.4671,0.5,13.96,50,0.208644,-0.120221,011171700,6,0,11.6
61785,2010/12/24 09:00:10,43.4952,9.4685,0.5,13.96,50,0.302042,0.031627,011171700,1,6,11.4
61785,2010/12/24 10:00:11,43.5050,9.4743,0.5,13.96,50,0.302613,0.129913,011171700,1,85,11.4
61785,2010/12/24 11:00:39,43.5153,9.4862,0.5,13.96,50,0.315686,0.264517,011171700,1,39,11.4
61785,2010/12/24 12:00:15,43.5245,9.4983,0.5,13.96,50,0.286072,0.27283,011171700,1,100,11.4
61785,2010/12/24 13:00:15,43.5334,9.5117,0.5,13.96,50,0.274899,0.300083,011171700,10,15,11.4
61785,2010/12/24 14:00:39,43.5420,9.5285,0.5,13.96,50,0.263873,0.373677,011171700,6,100,11.4
61785,2010/12/24 15:00:15,43.5491,9.5449,0.5,13.96,50,0.220773,0.369629,011171700,6,100,11.4
61785,2010/12/24 16:00:15,43.5545,9.5610,0.5,13.96,50,0.166792,0.360411,011171700,5,100,11.4
61785,2010/12/24 17:00:15,43.5586,9.5744,0.5,13.96,50,0.126639,0.299945,011171700,1,100,11.5
61785,2010/12/24 18:00:39,43.5639,9.5847,0.5,13.96,50,0.16262,0.22901,011171700,6,100,11.4
61785,2010/12/24 19:00:16,43.5725,9.5930,0.5,13.96,50,0.26734,0.186946,011171700,4,100,11.6
61785,2010/12/24 20:00:23,43.5850,9.6013,0.5,13.96,50,0.385344,0.185358,011171700,4,100,11.6
61785,2010/12/24 21:00:39,43.6002,9.6116,0.5,13.96,50,0.467412,0.229398,011171700,3,100,11.6
61785,2010/12/24 22:00:15,43.6181,9.6225,0.5,13.96,50,0.556597,0.245408,011171700,1,100,11.6
61785,2010/12/24 23:00:39,43.6387,9.6323,0.5,13.96,50,0.632068,0.21765,011171700,3,84,11.6
61785,2010/12/25 00:00:15,43.6601,9.6368,0.5,14.12,50,0.665428,0.101248,011171700,1,100,11.6
61785,2010/12/25 01:00:39,43.6826,9.6411,0.5,14.28,50,0.690366,0.095431,011171700,3,100,11.6
61785,2010/12/25 02:00:15,43.7028,9.6452,0.5,14.36,50,0.628115,0.092181,011171700,7,100,11.4
61785,2010/12/25 03:00:12,43.7223,9.6494,0.5,14.36,50,0.602808,0.093847,011171700,5,100,11.4
61785,2010/12/25 04:00:39,43.7413,9.6541,0.5,14.44,50,0.582493,0.104117,011171700,7,85,11.6
61785,2010/12/25 05:00:15,43.7533,9.6571,0.5,14.76,50,0.373137,0.067388,011171700,8,96,11.4
61785,2010/12/25 06:00:21,43.7615,9.6550,0.5,14.84,50,0.252856,-0.046771,011171700,10,96,11.4
61785,2010/12/25 07:00:39,43.7698,9.6514,0.5,14.92,50,0.255091,-0.079903,011171700,5,100,11.4
61785,2010/12/25 08:00:39,43.7790,9.6469,0.5,14.92,50,0.284165,-0.100363,011171700,7,100,11.4
61785,2010/12/25 09:00:15,43.7891,9.6430,0.5,14.92,50,0.314057,-0.087551,011171700,5,100,11.4
61785,2010/12/25 10:00:15,43.7977,9.6385,0.5,14.92,50,0.265632,-0.100331,011171700,6,71,11.4
61785,2010/12/25 11:00:39,43.8056,9.6334,0.5,14.92,50,0.242395,-0.11294,011171700,4,74,11.4
61785,2010/12/25 12:00:15,43.8125,9.6268,0.5,14.92,50,0.214554,-0.148101,011171700,8,4,11.4
61785,2010/12/25 13:00:15,43.8191,9.6187,0.5,14.92,50,0.203857,-0.180528,011171700,4,22,11.4
61785,2010/12/25 14:00:39,43.8271,9.6109,0.5,14.92,50,0.245463,-0.17267,011171700,5,1,11.4
61785,2010/12/25 15:00:11,43.8350,9.6037,0.5,15,50,0.245924,-0.161686,011171700,10,0,11.4
61785,2010/12/25 16:00:11,43.8435,9.5960,0.5,15,50,0.262544,-0.171546,011171700,6,0,11.4
61785,2010/12/25 17:00:15,43.8531,9.5894,0.5,15,50,0.296191,-0.146854,011171700,6,22,11.4
61785,2010/12/25 18:00:39,43.8629,9.5854,0.5,15,50,0.300693,-0.088497,011171700,3,0,11.4
61785,2010/12/25 19:00:15,43.8721,9.5827,0.5,15,50,0.286072,-0.060528,011171700,4,0,11.4
61785,2010/12/25 20:00:11,43.8808,9.5805,0.5,15,50,0.26902,-0.049037,011171700,6,0,11.4
61785,2010/12/25 21:00:15,43.8887,9.5802,0.5,14.92,50,0.24374,-0.006671,011171700,3,22,11.4
61785,2010/12/25 22:00:39,43.8944,9.5799,0.5,14.92,50,0.174893,-0.006634,011171700,3,0,11.4
61785,2010/12/25 23:00:15,43.8986,9.5787,0.5,14.92,50,0.130598,-0.026888,011171700,1,0,11.4
61785,2010/12/26 00:00:16,43.9022,9.5722,0.5,14.92,50,0.111164,-0.144623,011171700,1,0,11.4
61785,2010/12/26 01:00:37,43.9060,9.5599,0.5,14.92,50,0.116692,-0.272143,011171700,1,0,11.4
61785,2010/12/26 02:00:11,43.9104,9.5443,0.5,14.84,50,0.136894,-0.349671,011171700,1,0,11.4
61785,2010/12/26 03:00:39,43.9170,9.5261,0.5,14.84,50,0.202284,-0.401841,011171700,5,0,11.4
61785,2010/12/26 04:00:10,43.9257,9.5078,0.5,14.84,50,0.270903,-0.410445,011171700,8,0,11.4